Time,TemperatureF,DewpointF,PressureIn,WindDirection,WindDirectionDegrees,WindSpeedMPH,WindSpeedGustMPH,Humidity,HourlyPrecipIn,Conditions,Clouds,dailyrainin,SolarRadiationWatts/m^2,SoftwareType,DateUTC
2013-03-03 00:10:00,20.2,17.0,29.81,NNE,18,0.0,0.0,87,0.00,,,0.00,0,weatherlink.com 1.10,2013-03-03 05:10:00,
2013-03-03 00:25:00,20.0,17.0,29.81,North,11,0.0,0.0,87,0.00,,,0.00,0,weatherlink.com 1.10,2013-03-03 05:25:00,
2013-03-03 00:40:00,20.0,17.0,29.81,North,9,0.0,0.0,88,0.00,,,0.00,0,weatherlink.com 1.10,2013-03-03 05:40:00,
2013-03-03 00:56:00,20.1,17.0,29.82,North,9,0.0,0.0,88,0.00,,,0.00,0,weatherlink.com 1.10,2013-03-03 05:56:00,
2013-03-03 01:10:00,20.1,17.0,29.81,North,360,0.0,0.0,88,0.00,,,0.00,0,weatherlink.com 1.10,2013-03-03 06:10:00,
2013-03-03 01:25:00,20.2,17.0,29.81,NE,56,0.0,0.0,88,0.00,,,0.00,0,weatherlink.com 1.10,2013-03-03 06:25:00,
2013-03-03 01:40:00,20.3,17.0,29.81,NE,46,0.0,0.0,88,0.00,,,0.00,0,weatherlink.com 1.10,2013-03-03 06:40:00,
2013-03-03 01:55:00,20.1,17.0,29.81,NE,44,0.0,0.0,87,0.00,,,0.00,0,weatherlink.com 1.10,2013-03-03 06:55:00,
2013-03-03 02:10:00,19.7,17.0,29.81,NE,36,0.0,0.0,87,0.00,,,0.00,0,weatherlink.com 1.10,2013-03-03 07:10:00,
2013-03-03 02:26:00,19.5,16.0,29.80,NNE,30,0.0,0.0,87,0.00,,,0.00,0,weatherlink.com 1.10,2013-03-03 07:26:00,
2013-03-03 02:41:00,19.5,16.0,29.80,NNE,19,0.0,0.0,87,0.00,,,0.00,0,weatherlink.com 1.10,2013-03-03 07:41:00,
2013-03-03 02:56:00,19.3,16.0,29.80,NE,38,0.0,0.0,87,0.00,,,0.00,0,weatherlink.com 1.10,2013-03-03 07:56:00,
2013-03-03 03:11:00,19.2,16.0,29.79,North,9,0.0,0.0,87,0.00,,,0.00,0,weatherlink.com 1.10,2013-03-03 08:11:00,
2013-03-03 03:26:00,18.9,16.0,29.79,North,5,0.0,0.0,87,0.00,,,0.00,0,weatherlink.com 1.10,2013-03-03 08:26:00,
2013-03-03 03:41:00,18.7,16.0,29.79,NNE,21,0.0,0.0,88,0.00,,,0.00,0,weatherlink.com 1.10,2013-03-03 08:41:00,
2013-03-03 03:56:00,18.8,16.0,29.79,NE,38,0.0,0.0,88,0.00,,,0.00,0,weatherlink.com 1.10,2013-03-03 08:56:00,
2013-03-03 04:11:00,18.9,16.0,29.79,NNE,31,0.0,0.0,88,0.00,,,0.00,0,weatherlink.com 1.10,2013-03-03 09:11:00,
2013-03-03 04:26:00,18.6,16.0,29.80,NE,36,0.0,0.0,88,0.00,,,0.00,0,weatherlink.com 1.10,2013-03-03 09:26:00,
2013-03-03 04:41:00,18.4,16.0,29.80,NNE,18,0.0,0.0,88,0.00,,,0.00,0,weatherlink.com 1.10,2013-03-03 09:41:00,
2013-03-03 04:58:00,18.2,15.0,29.80,NNE,13,0.0,0.0,88,0.00,,,0.00,0,weatherlink.com 1.10,2013-03-03 09:58:00,
2013-03-03 05:11:00,18.0,15.0,29.80,North,10,0.0,0.0,88,0.00,,,0.00,0,weatherlink.com 1.10,2013-03-03 10:11:00,
2013-03-03 05:26:00,17.7,15.0,29.80,North,9,0.0,0.0,89,0.01,,,0.01,0,weatherlink.com 1.10,2013-03-03 10:26:00,
2013-03-03 05:41:00,17.6,15.0,29.80,North,5,0.0,0.0,89,0.01,,,0.01,0,weatherlink.com 1.10,2013-03-03 10:41:00,
2013-03-03 05:56:00,17.4,15.0,29.80,North,5,0.0,0.0,89,0.01,,,0.01,0,weatherlink.com 1.10,2013-03-03 10:56:00,
2013-03-03 06:11:00,17.2,15.0,29.80,NNW,344,0.0,0.0,89,0.01,,,0.01,0,weatherlink.com 1.10,2013-03-03 11:11:00,
2013-03-03 06:26:00,17.0,14.0,29.81,North,355,0.0,0.0,89,0.00,,,0.01,0,weatherlink.com 1.10,2013-03-03 11:26:00,
2013-03-03 06:41:00,16.9,14.0,29.81,NNE,14,0.0,0.0,89,0.00,,,0.01,5,weatherlink.com 1.10,2013-03-03 11:41:00,
2013-03-03 06:56:00,17.2,15.0,29.81,North,5,0.0,0.0,89,0.00,,,0.01,18,weatherlink.com 1.10,2013-03-03 11:56:00,
2013-03-03 07:11:00,17.3,15.0,29.81,NW,304,0.0,0.0,89,0.00,,,0.01,33,weatherlink.com 1.10,2013-03-03 12:11:00,
2013-03-03 07:26:00,17.7,15.0,29.82,NNE,27,0.0,0.0,89,0.00,,,0.01,60,weatherlink.com 1.10,2013-03-03 12:26:00,
2013-03-03 07:41:00,17.9,15.0,29.82,North,5,0.0,0.0,89,0.00,,,0.01,81,weatherlink.com 1.10,2013-03-03 12:41:00,
2013-03-03 07:56:00,18.3,15.0,29.82,NNW,340,0.0,0.0,88,0.00,,,0.01,127,weatherlink.com 1.10,2013-03-03 12:56:00,
2013-03-03 08:11:00,18.6,15.0,29.81,NNE,15,0.0,0.0,86,0.00,,,0.01,156,weatherlink.com 1.10,2013-03-03 13:11:00,
2013-03-03 08:26:00,19.0,15.0,29.82,NNE,24,0.0,0.0,85,0.00,,,0.01,139,weatherlink.com 1.10,2013-03-03 13:26:00,
2013-03-03 08:41:00,19.0,15.0,29.81,NNE,19,0.0,0.0,85,0.00,,,0.01,162,weatherlink.com 1.10,2013-03-03 13:41:00,
2013-03-03 08:56:00,19.2,15.0,29.81,North,9,0.0,0.0,83,0.00,,,0.01,193,weatherlink.com 1.10,2013-03-03 13:56:00,
2013-03-03 09:11:00,19.4,15.0,29.81,NNE,23,0.0,0.0,83,0.00,,,0.01,200,weatherlink.com 1.10,2013-03-03 14:11:00,
2013-03-03 09:26:00,19.8,15.0,29.80,NE,43,0.0,0.0,83,0.00,,,0.01,234,weatherlink.com 1.10,2013-03-03 14:26:00,
2013-03-03 09:41:00,19.9,15.0,29.80,NE,38,0.0,0.0,81,0.00,,,0.01,258,weatherlink.com 1.10,2013-03-03 14:41:00,
2013-03-03 09:56:00,20.4,15.0,29.80,NE,34,0.0,0.0,81,0.00,,,0.01,265,weatherlink.com 1.10,2013-03-03 14:56:00,
2013-03-03 10:11:00,20.6,15.0,29.80,NE,51,0.0,0.0,80,0.00,,,0.01,232,weatherlink.com 1.10,2013-03-03 15:11:00,
2013-03-03 10:26:00,20.7,15.0,29.80,NNE,24,0.0,0.0,80,0.00,,,0.01,243,weatherlink.com 1.10,2013-03-03 15:26:00,
2013-03-03 10:41:00,21.0,15.0,29.80,NE,46,0.0,0.0,79,0.00,,,0.01,325,weatherlink.com 1.10,2013-03-03 15:41:00,
2013-03-03 10:57:00,21.3,15.0,29.80,NNE,30,0.0,0.0,78,0.00,,,0.01,360,weatherlink.com 1.10,2013-03-03 15:57:00,
2013-03-03 11:12:00,21.9,16.0,29.80,ENE,77,0.0,0.0,78,0.00,,,0.01,366,weatherlink.com 1.10,2013-03-03 16:12:00,
2013-03-03 11:27:00,22.2,16.0,29.80,NNE,31,0.0,0.0,77,0.00,,,0.01,366,weatherlink.com 1.10,2013-03-03 16:27:00,
2013-03-03 11:42:00,22.2,16.0,29.79,NE,49,0.0,0.0,76,0.00,,,0.01,394,weatherlink.com 1.10,2013-03-03 16:42:00,
2013-03-03 11:57:00,22.4,16.0,29.79,NNE,15,0.0,0.0,76,0.00,,,0.01,417,weatherlink.com 1.10,2013-03-03 16:57:00,
2013-03-03 12:14:00,22.9,16.0,29.79,NNE,31,0.0,0.0,75,0.00,,,0.01,397,weatherlink.com 1.10,2013-03-03 17:14:00,
2013-03-03 12:27:00,22.8,16.0,29.79,NE,41,0.0,0.0,75,0.00,,,0.01,369,weatherlink.com 1.10,2013-03-03 17:27:00,
2013-03-03 12:42:00,23.2,17.0,29.78,NW,320,0.0,0.0,76,0.00,,,0.01,352,weatherlink.com 1.10,2013-03-03 17:42:00,
2013-03-03 12:57:00,23.0,16.0,29.77,NW,321,0.0,0.0,74,0.00,,,0.01,366,weatherlink.com 1.10,2013-03-03 17:57:00,
2013-03-03 13:12:00,23.6,16.0,29.77,North,355,0.0,0.0,74,0.00,,,0.01,359,weatherlink.com 1.10,2013-03-03 18:12:00,
2013-03-03 13:27:00,23.7,16.0,29.77,ENE,57,0.0,0.0,73,0.00,,,0.01,357,weatherlink.com 1.10,2013-03-03 18:27:00,
2013-03-03 13:42:00,23.9,16.0,29.76,NNE,27,0.0,0.0,73,0.00,,,0.01,352,weatherlink.com 1.10,2013-03-03 18:42:00,
2013-03-03 13:57:00,24.2,16.0,29.77,NNE,24,0.0,0.0,72,0.00,,,0.01,330,weatherlink.com 1.10,2013-03-03 18:57:00,
2013-03-03 14:12:00,24.4,17.0,29.76,NNE,25,0.0,0.0,73,0.00,,,0.01,346,weatherlink.com 1.10,2013-03-03 19:12:00,
2013-03-03 14:27:00,24.7,17.0,29.76,SW,216,0.0,0.0,71,0.00,,,0.01,309,weatherlink.com 1.10,2013-03-03 19:27:00,
2013-03-03 14:42:00,24.8,17.0,29.76,NE,46,0.0,0.0,71,0.00,,,0.01,297,weatherlink.com 1.10,2013-03-03 19:42:00,
2013-03-03 14:57:00,25.0,17.0,29.76,NE,34,0.0,0.0,72,0.00,,,0.01,271,weatherlink.com 1.10,2013-03-03 19:57:00,
2013-03-03 15:12:00,25.1,17.0,29.76,East,86,0.0,0.0,71,0.00,,,0.01,216,weatherlink.com 1.10,2013-03-03 20:12:00,
2013-03-03 15:27:00,24.9,16.0,29.76,NNE,29,0.0,0.0,70,0.00,,,0.01,149,weatherlink.com 1.10,2013-03-03 20:27:00,
2013-03-03 15:42:00,24.6,16.0,29.77,North,11,0.0,0.0,71,0.00,,,0.01,130,weatherlink.com 1.10,2013-03-03 20:42:00,
2013-03-03 15:57:00,24.8,17.0,29.77,NNE,26,0.0,0.0,72,0.00,,,0.01,118,weatherlink.com 1.10,2013-03-03 20:57:00,
2013-03-03 16:12:00,25.0,17.0,29.77,NE,35,0.0,0.0,72,0.00,,,0.01,98,weatherlink.com 1.10,2013-03-03 21:12:00,
2013-03-03 16:27:00,24.9,17.0,29.77,NNE,25,0.0,0.0,72,0.00,,,0.01,76,weatherlink.com 1.10,2013-03-03 21:27:00,
2013-03-03 16:42:00,24.8,17.0,29.77,North,5,0.0,0.0,73,0.00,,,0.01,54,weatherlink.com 1.10,2013-03-03 21:42:00,
2013-03-03 16:57:00,25.0,17.0,29.77,NNE,15,0.0,0.0,73,0.00,,,0.01,39,weatherlink.com 1.10,2013-03-03 21:57:00,
2013-03-03 17:12:00,24.6,17.0,29.78,NNE,32,0.0,0.0,74,0.00,,,0.01,26,weatherlink.com 1.10,2013-03-03 22:12:00,
2013-03-03 17:27:00,24.5,18.0,29.78,NNE,22,0.0,0.0,75,0.00,,,0.01,14,weatherlink.com 1.10,2013-03-03 22:27:00,
2013-03-03 17:42:00,24.6,18.0,29.78,NNE,20,0.0,0.0,75,0.00,,,0.01,5,weatherlink.com 1.10,2013-03-03 22:42:00,
2013-03-03 17:57:00,24.4,18.0,29.78,NNE,21,0.0,0.0,76,0.00,,,0.01,0,weatherlink.com 1.10,2013-03-03 22:57:00,
2013-03-03 18:12:00,24.3,18.0,29.78,NE,40,0.0,0.0,77,0.00,,,0.01,0,weatherlink.com 1.10,2013-03-03 23:12:00,
2013-03-03 18:27:00,24.0,18.0,29.79,NNE,33,0.0,0.0,78,0.00,,,0.01,0,weatherlink.com 1.10,2013-03-03 23:27:00,
2013-03-03 18:42:00,23.7,18.0,29.79,NE,34,0.0,0.0,80,0.00,,,0.01,0,weatherlink.com 1.10,2013-03-03 23:42:00,
2013-03-03 18:57:00,23.2,19.0,29.80,NE,36,0.0,0.0,82,0.00,,,0.01,0,weatherlink.com 1.10,2013-03-03 23:57:00,
2013-03-03 19:12:00,23.0,19.0,29.80,NE,45,0.0,0.0,83,0.00,,,0.01,0,weatherlink.com 1.10,2013-03-04 00:12:00,
2013-03-03 19:29:00,22.8,18.0,29.80,NNE,28,0.0,0.0,83,0.00,,,0.01,0,weatherlink.com 1.10,2013-03-04 00:29:00,
2013-03-03 19:42:00,22.7,19.0,29.80,NE,48,0.0,0.0,84,0.00,,,0.01,0,weatherlink.com 1.10,2013-03-04 00:42:00,
2013-03-03 19:57:00,22.4,18.0,29.80,NNE,24,0.0,0.0,84,0.00,,,0.01,0,weatherlink.com 1.10,2013-03-04 00:57:00,
2013-03-03 20:12:00,22.4,19.0,29.80,NNE,21,0.0,0.0,85,0.00,,,0.01,0,weatherlink.com 1.10,2013-03-04 01:12:00,
2013-03-03 20:27:00,22.4,18.0,29.80,North,11,0.0,0.0,84,0.00,,,0.01,0,weatherlink.com 1.10,2013-03-04 01:27:00,
2013-03-03 20:42:00,22.0,18.0,29.80,North,5,0.0,0.0,84,0.00,,,0.01,0,weatherlink.com 1.10,2013-03-04 01:42:00,
2013-03-03 20:57:00,21.9,18.0,29.80,NNE,23,0.0,0.0,84,0.00,,,0.01,0,weatherlink.com 1.10,2013-03-04 01:57:00,
2013-03-03 21:12:00,21.9,18.0,29.80,NNE,21,0.0,0.0,84,0.00,,,0.01,0,weatherlink.com 1.10,2013-03-04 02:12:00,
2013-03-03 21:27:00,21.9,18.0,29.80,North,355,0.0,0.0,84,0.00,,,0.01,0,weatherlink.com 1.10,2013-03-04 02:27:00,
2013-03-03 21:42:00,21.9,18.0,29.79,NNE,20,0.0,0.0,85,0.00,,,0.01,0,weatherlink.com 1.10,2013-03-04 02:42:00,
2013-03-03 21:57:00,21.8,18.0,29.79,NE,42,0.0,0.0,85,0.00,,,0.01,0,weatherlink.com 1.10,2013-03-04 02:57:00,
2013-03-03 22:12:00,21.9,18.0,29.79,NNW,346,0.0,0.0,85,0.00,,,0.01,0,weatherlink.com 1.10,2013-03-04 03:12:00,
2013-03-03 22:27:00,21.8,18.0,29.78,ENE,67,0.0,0.0,86,0.00,,,0.01,0,weatherlink.com 1.10,2013-03-04 03:27:00,
2013-03-03 22:42:00,21.7,18.0,29.78,North,360,0.0,0.0,86,0.00,,,0.01,0,weatherlink.com 1.10,2013-03-04 03:42:00,
2013-03-03 22:57:00,22.0,19.0,29.78,NNE,22,0.0,0.0,86,0.00,,,0.01,0,weatherlink.com 1.10,2013-03-04 03:57:00,
2013-03-03 23:12:00,22.2,19.0,29.78,NE,42,0.0,0.0,86,0.00,,,0.01,0,weatherlink.com 1.10,2013-03-04 04:12:00,
2013-03-03 23:27:00,22.0,19.0,29.77,NNE,30,0.0,0.0,86,0.00,,,0.01,0,weatherlink.com 1.10,2013-03-04 04:27:00,
2013-03-03 23:42:00,22.2,19.0,29.78,NNE,30,0.0,0.0,86,0.00,,,0.01,0,weatherlink.com 1.10,2013-03-04 04:42:00,
2013-03-03 23:57:00,22.2,19.0,29.78,NNE,13,0.0,0.0,86,0.00,,,0.01,0,weatherlink.com 1.10,2013-03-04 04:57:00,